[[{"header":{"parameterUnit":"m.s-1","parameterCategory":1,"la1":30.2991,"la2":30.254,"lo1":-89.0895,"lo2":-89.0444,"dy":0.0017,"dx":0.0017,"nx":28,"ny":28,"refTime":"2024-03-11T03:00:00:Z","depth":0,"parameterNumber":2,"parameterNumberName":"U-component_of_WINDS"},"data":[0,0,0,0,0,0,0,0,0,0,0,0,0,0,0,0,0,0,0,0,0,0,0,0,0,0,0,0,0,0,0,0,0,0,0,0,0,0,0,0,0,0,0,0,0,0,0,0,0,0,0,0,0,0,0,0,0,0,-2.8542,-2.8542,0,-2.8543,-2.8543,-2.8543,-2.8469,-2.8467,-2.8465,-2.8464,-2.8464,-2.8466,-2.8467,0,0,0,0,0,0,0,0,0,0,0,0,0,-2.8477,-2.8479,-2.8542,-2.8542,-2.8542,-2.8543,-2.8543,-2.8543,-2.847,-2.8467,-2.8465,-2.8463,-2.8463,-2.8465,-2.8468,0,0,0,0,0,0,0,0,0,0,0,0,0,-2.8494,-2.8479,-2.8542,-2.8506,-2.8502,-2.8543,-2.8543,-2.8543,-2.847,-2.8467,-2.8464,-2.8462,-2.8463,-2.8465,-2.8468,-2.8543,0,0,-2.8476,-2.8477,0,0,0,0,0,0,0,0,-2.8493,-2.8497,-2.8511,-2.8508,-2.8505,-2.8503,-2.852,-2.8543,-2.8471,-2.8482,-2.8464,-2.846,-2.8479,-2.848,-2.8487,-2.8543,-2.8543,-2.8476,-2.8478,-2.8479,-2.848,0,0,0,0,0,0,0,-2.8492,-2.8496,-2.8542,-2.8511,-2.8508,-2.8489,-2.8489,-2.8524,-2.8497,-2.8481,-2.8476,-2.8477,-2.8477,-2.8484,-2.8486,-2.8543,-2.8476,-2.8479,-2.848,-2.8482,-2.8662,-2.8665,0,0,0,0,0,0,-2.8496,-2.8496,-2.8542,-2.8542,-2.8492,-2.8493,-2.8492,-2.8507,-2.8497,-2.8492,-2.8479,-2.8474,-2.8481,-2.8483,-2.8486,-2.8574,-2.8479,-2.8482,-2.8483,-2.8659,-2.8662,-2.8666,0,0,0,0,0,0,-2.8495,-2.8501,-2.8542,-2.8518,-2.8522,-2.8497,-2.8514,-2.8508,-2.8515,-2.8495,-2.849,-2.8492,-2.8479,-2.8482,-2.853,-2.8573,-2.8483,-2.8486,-2.8655,-2.866,-2.8664,-2.875,0,0,0,0,0,0,-2.8494,-2.8501,-2.8529,-2.8519,-2.8523,-2.8586,-2.8517,-2.851,-2.8521,-2.8513,-2.8506,-2.8502,-2.8477,-2.8526,-2.8532,-2.8575,-2.8488,-2.8651,-2.8657,-2.8663,-2.8743,-2.8757,-2.8769,0,0,0,0,0,-2.8491,-2.8553,-2.8531,-2.8537,-2.8558,-2.8589,-2.8591,-2.8562,-2.8524,-2.8553,-2.854,-2.8502,-2.8567,-2.8531,-2.8538,-2.8582,-2.8648,-2.8655,-2.8662,-2.8737,-2.8754,-2.8768,0,0,0,0,0,0,-2.8569,-2.8551,-2.8526,-2.8587,-2.859,-2.8576,-2.8611,-2.858,-2.8594,-2.8586,-2.8548,-2.8548,-2.8601,-2.8596,-2.8557,-2.8655,-2.8601,-2.861,-2.8656,-2.8672,-2.8684,-2.8684,-2.849,0,0,0,0,0,-2.8593,-2.8619,-2.8602,-2.8657,-2.866,-2.8636,-2.8648,-2.8625,-2.8626,-2.8627,-2.8618,-2.8621,-2.8642,-2.8656,-2.8675,-2.8742,-2.8739,-2.8776,-2.8788,-2.8799,-2.8807,-2.8843,-2.8858,-2.8689,-2.8689,-2.8689,0,0,-2.8643,-2.8636,-2.8655,-2.8673,-2.8672,-2.8701,-2.8637,-2.867,-2.869,-2.8632,-2.8676,-2.867,-2.8671,-2.8729,-2.8753,-2.8726,-2.8853,-2.8808,-2.8817,-2.8819,-2.8852,-2.8868,-2.8882,-2.8694,-2.8693,-2.8692,0,0,-2.8748,-2.8746,-2.8792,-2.8793,-2.8794,-2.8777,-2.8788,-2.878,-2.8773,-2.8817,-2.8774,-2.8798,-2.8835,-2.8838,-2.8844,-2.8952,-2.8918,-2.8959,-2.9026,-2.9061,-2.9075,-2.9086,-2.9125,-2.9139,-2.8967,-2.8967,-2.8967,0,-2.881,-2.8851,-2.8819,-2.8854,-2.8863,-2.8813,-2.8859,-2.8862,-2.8868,-2.8876,-2.8845,-2.8891,-2.8888,-2.8946,-2.8973,-2.8979,-2.8991,-2.8959,-2.9075,-2.9087,-2.9097,-2.9133,-2.9148,-2.8972,-2.8972,-2.8971,-2.8971,0,-2.8927,-2.8956,-2.8993,-2.9001,-2.9014,-2.9055,-2.9029,-2.9047,-2.9023,-2.901,-2.9056,-2.9051,-2.9067,-2.9079,-2.9056,-2.9134,-2.9117,-2.9082,-2.9027,-2.9119,-2.9152,-2.9166,-2.8979,-2.8978,-2.8976,-2.8975,0,0,-2.908,-2.9071,-2.9085,-2.9088,-2.9086,-2.9108,-2.9147,-2.9163,-2.9179,-2.9186,-2.9217,-2.925,-2.9218,-2.9225,-2.9202,-2.9233,-2.9319,-2.9193,-2.9193,-2.9217,-2.9405,-2.9432,-2.9448,-2.9297,-2.9299,-2.9301,-2.9405,0,-2.9182,-2.9247,-2.922,-2.9288,-2.9315,-2.9268,-2.9302,-2.9305,-2.9294,-2.9315,-2.9303,-2.9327,-2.9282,-2.9286,-2.9315,-2.9303,-2.9356,-2.9295,-2.9326,-2.9327,-2.9327,-2.9466,-2.9494,-2.9592,-2.9418,-2.942,-2.9422,0,-2.9309,-2.9322,-2.9393,-2.9387,-2.9397,-2.9428,-2.9442,-2.9462,-2.9465,-2.9454,-2.9463,-2.9434,-2.9471,-2.9417,-2.9469,-2.9428,-2.9439,-2.9435,-2.9438,-2.9439,-2.938,-2.9471,-2.9622,-2.9637,-2.9442,-2.944,-2.9439,0,-2.9413,-2.9448,-2.9496,-2.95,-2.9494,-2.9517,-2.9515,-2.9515,-2.9527,-2.9539,-2.9546,-2.9562,-2.9571,-2.9584,-2.956,-2.9523,-2.9615,-2.9559,-2.9608,-2.9609,-2.9629,-2.9628,-2.9784,-2.9637,-2.9637,-2.9636,-2.9636,0,-2.953,-2.9575,-2.9542,-2.9571,-2.9621,-2.959,-2.964,-2.9633,-2.9633,-2.966,-2.9621,-2.9647,-2.9613,-2.9636,-2.9617,-2.9663,-2.9667,-2.966,-2.9654,-2.9663,-2.9664,-2.967,-2.9662,-2.964,-2.9639,-2.9639,-2.9638,0,-2.9654,-2.9634,-2.9683,-2.9674,-2.9672,-2.9709,-2.9701,-2.9728,-2.9715,-2.9749,-2.9756,-2.9735,-2.976,-2.9737,-2.9761,-2.9748,-2.981,-2.9794,-2.9809,-2.9805,-2.9854,-2.985,-3.0019,-3.004,-2.988,-2.9882,-2.9883,0,-2.973,-2.9764,-2.9759,-2.9774,-2.9775,-2.9801,-2.9813,-2.9784,-2.9799,-2.9804,-2.983,-2.9852,-2.9868,-2.991,-2.9897,-2.9916,-2.99,-2.9958,-2.9903,-2.9911,-2.9901,-2.9899,-2.9902,-2.997,-2.9971,-2.9973,-2.9974,0,-2.9866,-2.9854,-2.9874,-2.9891,-2.9907,-2.9919,-2.9927,-2.9942,-2.9912,-2.9931,-2.9956,-2.9969,-2.9993,-3.0016,-3.003,-3.0028,-2.9997,-2.9992,-3.0004,-3.0013,-3.0021,-3.0017,-2.984,-2.9988,-2.9987,-2.9986,-2.9985,-2.9984,-2.9967,-2.9996,-2.9997,-3.002,-3.0024,-3.0033,-3.0058,-3.0048,-3.0069,-3.0087,-3.0069,-3.01,-3.0102,-3.0118,-3.0121,-3.0144,-3.012,-3.0138,-3.0142,-3.0147,-3.0154,-3.0018,-3.0147,-3.0147,-3.0146,-3.0146,-3.0145,0,-3.0101,-3.01,-3.0122,-3.0136,-3.0154,-3.0124,-3.0132,-3.0149,-3.0178,-3.0182,-3.0199,-3.0229,-3.0251,-3.024,-3.0259,-3.028,-3.0266,-3.0286,-3.0284,-3.0284,-3.0175,-3.0162,-3.0297,-3.0297,-3.0297,-3.0297,-3.0297,-3.0297,-3.0173,-3.0219,-3.0208,-3.0256,-3.0255,-3.0285,-3.0293,-3.0301,-3.0305,-3.034,-3.0358,-3.0351,-3.035,-3.0369,-3.0387,-3.0384,-3.0392,-3.0418,-3.0409,-3.0307,-3.0292,-3.0277,-3.0265,-3.042,-3.042,-3.0516,-3.0517,-3.0517]},{"header":{"parameterUnit":"m.s-1","parameterCategory":1,"la1":30.2991,"la2":30.254,"lo1":-89.0895,"lo2":-89.0444,"dy":0.0017,"dx":0.0017,"nx":28,"ny":28,"refTime":"2024-03-11T03:00:00:Z","depth":0,"parameterNumber":3,"parameterNumberName":"V-component_of_WINDS"},"data":[0,0,0,0,0,0,0,0,0,0,0,0,0,0,0,0,0,0,0,0,0,0,0,0,0,0,0,0,0,0,0,0,0,0,0,0,0,0,0,0,0,0,0,0,0,0,0,0,0,0,0,0,0,0,0,0,0,0,-0.555,-0.5551,0,-0.5657,-0.5658,-0.5659,-0.5699,-0.5698,-0.5698,-0.5698,-0.5807,-0.581,-0.5814,0,0,0,0,0,0,0,0,0,0,0,0,0,-0.5378,-0.5381,-0.5549,-0.5551,-0.5552,-0.5656,-0.5658,-0.5659,-0.5699,-0.5698,-0.5698,-0.5698,-0.5806,-0.581,-0.5814,0,0,0,0,0,0,0,0,0,0,0,0,0,-0.5466,-0.5382,-0.5549,-0.5584,-0.5589,-0.5656,-0.5658,-0.566,-0.5699,-0.5698,-0.5698,-0.5697,-0.5805,-0.581,-0.5814,-0.5855,0,0,-0.5829,-0.5831,0,0,0,0,0,0,0,0,-0.5461,-0.5472,-0.5578,-0.5582,-0.5587,-0.5664,-0.5638,-0.5725,-0.5699,-0.5657,-0.5698,-0.5697,-0.576,-0.5768,-0.579,-0.586,-0.5865,-0.583,-0.5833,-0.5835,-0.5836,0,0,0,0,0,0,0,-0.5455,-0.5468,-0.5592,-0.5579,-0.5585,-0.5595,-0.5606,-0.5655,-0.571,-0.5661,-0.5664,-0.5676,-0.5762,-0.5785,-0.5793,-0.5866,-0.583,-0.5834,-0.5837,-0.5839,-0.5974,-0.5975,0,0,0,0,0,0,-0.5443,-0.5462,-0.5588,-0.5595,-0.5521,-0.5598,-0.5611,-0.564,-0.571,-0.572,-0.5676,-0.5677,-0.5777,-0.5787,-0.5797,-0.5848,-0.5835,-0.5839,-0.5842,-0.5974,-0.5974,-0.5975,0,0,0,0,0,0,-0.5439,-0.5454,-0.5584,-0.553,-0.5547,-0.5602,-0.5633,-0.5642,-0.5665,-0.5721,-0.5731,-0.5689,-0.5777,-0.579,-0.584,-0.5852,-0.5842,-0.5846,-0.5973,-0.5974,-0.5975,-0.5951,0,0,0,0,0,0,-0.5434,-0.5452,-0.5468,-0.553,-0.555,-0.5626,-0.5634,-0.5644,-0.5673,-0.5675,-0.5736,-0.5746,-0.5777,-0.5832,-0.5845,-0.5859,-0.585,-0.5972,-0.5973,-0.5974,-0.5951,-0.5951,-0.5952,0,0,0,0,0,-0.5428,-0.5457,-0.5469,-0.5484,-0.5571,-0.5626,-0.5638,-0.5674,-0.5674,-0.569,-0.5727,-0.5744,-0.5849,-0.5837,-0.5851,-0.5867,-0.5971,-0.5973,-0.5974,-0.5951,-0.5951,-0.5952,0,0,0,0,0,0,-0.5396,-0.5466,-0.548,-0.553,-0.5572,-0.5633,-0.5655,-0.5673,-0.5716,-0.5716,-0.5759,-0.5772,-0.5819,-0.5848,-0.5834,-0.591,-0.5911,-0.5916,-0.5889,-0.5889,-0.589,-0.5882,-0.5854,0,0,0,0,0,-0.5395,-0.5435,-0.5494,-0.5533,-0.5553,-0.56,-0.5626,-0.5649,-0.5695,-0.5712,-0.5753,-0.5795,-0.5838,-0.5865,-0.5908,-0.5956,-0.5969,-0.5973,-0.5973,-0.5973,-0.5977,-0.6003,-0.6006,-0.598,-0.598,-0.598,0,0,-0.5394,-0.5437,-0.5459,-0.5527,-0.5563,-0.5602,-0.5615,-0.5656,-0.5686,-0.5719,-0.5769,-0.5799,-0.585,-0.5899,-0.5922,-0.5925,-0.5987,-0.5975,-0.5975,-0.5978,-0.6005,-0.6008,-0.601,-0.5981,-0.5981,-0.5981,0,0,-0.5411,-0.5447,-0.5484,-0.5518,-0.5572,-0.5603,-0.5611,-0.5669,-0.5691,-0.5742,-0.5767,-0.5802,-0.5875,-0.591,-0.5937,-0.5966,-0.5984,-0.5979,-0.598,-0.6006,-0.6008,-0.601,-0.602,-0.6023,-0.5982,-0.5982,-0.5982,0,-0.5402,-0.5463,-0.55,-0.554,-0.5569,-0.56,-0.5637,-0.5669,-0.5733,-0.5752,-0.5754,-0.5845,-0.5882,-0.5939,-0.5946,-0.5967,-0.5978,-0.5972,-0.6004,-0.6007,-0.6009,-0.6019,-0.6023,-0.5981,-0.5981,-0.5981,-0.5981,0,-0.5449,-0.5491,-0.5514,-0.5574,-0.5606,-0.5644,-0.5687,-0.5714,-0.5735,-0.5766,-0.5816,-0.5861,-0.5912,-0.5928,-0.5949,-0.5988,-0.5987,-0.5996,-0.5999,-0.601,-0.602,-0.6024,-0.598,-0.598,-0.598,-0.5981,0,0,-0.545,-0.5531,-0.5538,-0.5566,-0.5626,-0.5659,-0.5698,-0.5748,-0.5771,-0.5814,-0.5847,-0.5908,-0.5916,-0.5947,-0.5972,-0.5994,-0.6014,-0.6,-0.6002,-0.6001,-0.6059,-0.6052,-0.6056,-0.6025,-0.6026,-0.6027,-0.6054,0,-0.5475,-0.5547,-0.5581,-0.5637,-0.5676,-0.5705,-0.5739,-0.578,-0.5809,-0.5846,-0.5879,-0.5921,-0.5929,-0.5947,-0.5971,-0.6006,-0.6026,-0.6005,-0.6057,-0.6058,-0.6043,-0.6061,-0.6054,-0.6078,-0.6059,-0.6059,-0.606,0,-0.5514,-0.5556,-0.5616,-0.5672,-0.5689,-0.5719,-0.5767,-0.5802,-0.5848,-0.5868,-0.5902,-0.5926,-0.5968,-0.5967,-0.6025,-0.601,-0.6033,-0.6053,-0.6055,-0.6062,-0.606,-0.6068,-0.6087,-0.609,-0.6067,-0.6066,-0.6065,0,-0.5508,-0.558,-0.5626,-0.5648,-0.5714,-0.5734,-0.5762,-0.5808,-0.5836,-0.5878,-0.5896,-0.5943,-0.5968,-0.6003,-0.6039,-0.6035,-0.6093,-0.6096,-0.6111,-0.611,-0.6122,-0.6121,-0.6145,-0.6137,-0.6137,-0.6137,-0.6137,0,-0.5533,-0.5568,-0.5624,-0.5652,-0.5692,-0.5731,-0.5769,-0.58,-0.584,-0.5874,-0.5902,-0.5933,-0.5979,-0.6015,-0.6043,-0.6087,-0.6098,-0.6115,-0.6122,-0.6113,-0.611,-0.6129,-0.6128,-0.6138,-0.6137,-0.6137,-0.6137,0,-0.5533,-0.5572,-0.5623,-0.5681,-0.5696,-0.5723,-0.5772,-0.58,-0.583,-0.5873,-0.5885,-0.5933,-0.5978,-0.6016,-0.6075,-0.6094,-0.6139,-0.6147,-0.6123,-0.6127,-0.614,-0.6138,-0.6176,-0.6183,-0.617,-0.617,-0.617,0,-0.5546,-0.5574,-0.5634,-0.5659,-0.5687,-0.5726,-0.5755,-0.5793,-0.5822,-0.5876,-0.5897,-0.5943,-0.5983,-0.6052,-0.6092,-0.6137,-0.6147,-0.6158,-0.6154,-0.6144,-0.6147,-0.6145,-0.6148,-0.6157,-0.6157,-0.6157,-0.6157,0,-0.5565,-0.5583,-0.5622,-0.5669,-0.5702,-0.574,-0.5779,-0.5798,-0.5844,-0.5874,-0.592,-0.595,-0.601,-0.6056,-0.6105,-0.6134,-0.6153,-0.6158,-0.6164,-0.6154,-0.6139,-0.6147,-0.6123,-0.6157,-0.6157,-0.6157,-0.6157,-0.6157,-0.5572,-0.5598,-0.5644,-0.5688,-0.5721,-0.5757,-0.5786,-0.5819,-0.5858,-0.591,-0.593,-0.5977,-0.6022,-0.609,-0.6118,-0.6155,-0.6158,-0.6167,-0.6169,-0.6171,-0.6169,-0.6133,-0.6164,-0.6164,-0.6164,-0.6164,-0.6164,0,-0.5592,-0.5623,-0.5663,-0.5716,-0.575,-0.5765,-0.5809,-0.5836,-0.5877,-0.5917,-0.5955,-0.6007,-0.6051,-0.6094,-0.614,-0.6161,-0.6171,-0.6172,-0.6171,-0.6177,-0.6163,-0.6154,-0.6163,-0.6163,-0.6163,-0.6163,-0.6163,-0.6163,-0.5607,-0.5651,-0.5674,-0.5735,-0.5766,-0.5812,-0.5835,-0.5868,-0.59,-0.5957,-0.5994,-0.6022,-0.6063,-0.6112,-0.6153,-0.6165,-0.6181,-0.6179,-0.6193,-0.6179,-0.6178,-0.6178,-0.6169,-0.6182,-0.6182,-0.6204,-0.6204,-0.6204]}]]